Date,TemperatureHighF,TemperatureAvgF,TemperatureLowF,DewpointHighF,DewpointAvgF,DewpointLowF,HumidityHigh,HumidityAvg,HumidityLow,PressureMaxIn,PressureMinIn,WindSpeedMaxMPH,WindSpeedAvgMPH,GustSpeedMaxMPH,PrecipitationSumIn
2012-11-14,65,60,54,-100,-100,-100,0,0,100,0.00,40.00,0,-999,0,0.00
2012-11-15,64,54,43,-100,-100,-100,0,0,100,0.00,40.00,0,-999,0,0.00
2012-11-16,62,53,47,-100,-100,-100,0,0,100,0.00,40.00,0,-999,0,0.00
2012-11-17,58,57,54,-100,-100,-100,0,0,100,0.00,40.00,0,-999,0,0.00
2012-11-18,58,53,46,-100,-100,-100,0,0,100,0.00,40.00,0,-999,0,0.00
2012-11-19,62,54,43,-100,-100,-100,0,0,100,0.00,40.00,0,-999,0,0.00
2012-11-20,61,56,49,-100,-100,-100,0,0,100,0.00,40.00,0,-999,0,0.00
2012-11-21,59,54,44,-100,-100,-100,0,0,100,0.00,40.00,0,-999,0,0.00
2012-11-22,60,48,39,-100,-100,-100,0,0,100,0.00,40.00,0,-999,0,0.00
2012-11-23,63,49,39,-100,-100,-100,0,0,100,0.00,40.00,0,-999,0,0.00
2012-11-24,62,51,40,-100,-100,-100,0,0,100,0.00,40.00,0,-999,0,0.00
2012-11-25,55,48,40,-100,-100,-100,0,0,100,0.00,40.00,0,-999,0,0.00
2012-11-26,40,38,37,-100,-100,-100,0,0,100,0.00,40.00,0,-999,0,0.00
2012-11-27,58,49,43,-100,-100,-100,0,0,100,0.00,40.00,0,-999,0,0.00
2012-11-28,60,54,47,-100,-100,-100,0,0,100,0.00,40.00,0,-999,0,0.00
2012-11-29,58,56,52,-100,-100,-100,0,0,100,0.00,40.00,0,-999,0,0.00
2012-11-30,58,56,55,-100,-100,-100,0,0,100,0.00,40.00,0,-999,0,0.00
2012-12-1,61,58,55,-100,-100,-100,0,0,100,0.00,40.00,0,-999,0,0.00
2012-12-2,58,54,44,-100,-100,-100,0,0,100,0.00,40.00,0,-999,0,0.00
2012-12-3,58,49,39,-100,-100,-100,0,0,100,0.00,40.00,0,-999,0,0.00
2012-12-4,60,53,42,-100,-100,-100,0,0,100,0.00,40.00,0,-999,0,0.00
2012-12-5,62,57,54,-100,-100,-100,0,0,100,0.00,40.00,0,-999,0,0.00
2012-12-6,55,52,45,-100,-100,-100,0,0,100,0.00,40.00,0,-999,0,0.00
2012-12-7,58,45,37,-100,-100,-100,0,0,100,0.00,40.00,0,-999,0,0.00
2012-12-8,55,45,37,-100,-100,-100,0,0,100,0.00,40.00,0,-999,0,0.00
2012-12-9,62,54,44,-100,-100,-100,0,0,100,0.00,40.00,0,-999,0,0.00
2012-12-10,64,59,53,-100,-100,-100,0,0,100,0.00,40.00,0,-999,0,0.00
2012-12-11,51,46,38,-100,-100,-100,0,0,100,0.00,40.00,0,-999,0,0.00
2012-12-12,50,46,40,-100,-100,-100,0,0,100,0.00,40.00,0,-999,0,0.00
2012-12-13,50,40,32,-100,-100,-100,0,0,100,0.00,40.00,0,-999,0,0.00
2012-12-14,47,37,32,-100,-100,-100,0,0,100,0.00,40.00,0,-999,0,0.00
2012-12-15,46,39,32,-100,-100,-100,0,0,100,0.00,40.00,0,-999,0,0.00
2012-12-16,54,49,43,-100,-100,-100,0,0,100,0.00,40.00,0,-999,0,0.00
2012-12-17,53,50,44,-100,-100,-100,0,0,100,0.00,40.00,0,-999,0,0.00
2012-12-18,47,43,36,-100,-100,-100,0,0,100,0.00,40.00,0,-999,0,0.00
2012-12-19,49,37,29,-100,-100,-100,0,0,100,0.00,40.00,0,-999,0,0.00
2012-12-20,54,44,29,-100,-100,-100,0,0,100,0.00,40.00,0,-999,0,0.00
2012-12-21,54,50,45,-100,-100,-100,0,0,100,0.00,40.00,0,-999,0,0.00
2012-12-22,53,49,46,-100,-100,-100,0,0,100,0.00,40.00,0,-999,0,0.00
2012-12-23,52,49,44,-100,-100,-100,0,0,100,0.00,40.00,0,-999,0,0.00
2012-12-24,52,45,40,-100,-100,-100,0,0,100,0.00,40.00,0,-999,0,0.00
2012-12-25,46,43,38,-100,-100,-100,0,0,100,0.00,40.00,0,-999,0,0.00
2012-12-26,49,45,40,-100,-100,-100,0,0,100,0.00,40.00,0,-999,0,0.00
2012-12-27,49,40,35,-100,-100,-100,0,0,100,0.00,40.00,0,-999,0,0.00
2012-12-28,45,40,34,-100,-100,-100,0,0,100,0.00,40.00,0,-999,0,0.00
2012-12-29,49,41,38,-100,-100,-100,0,0,100,0.00,40.00,0,-999,0,0.00
2012-12-30,49,39,32,-100,-100,-100,0,0,100,0.00,40.00,0,-999,0,0.00
2012-12-31,49,39,28,-100,-100,-100,0,0,100,0.00,40.00,0,-999,0,0.00
2013-1-1,46,40,34,-100,-100,-100,0,0,100,0.00,40.00,0,-999,0,0.00